TimeEST,TemperatureF,Dew PointF,Humidity,Sea Level PressureIn,VisibilityMPH,Wind Direction,Wind SpeedMPH,Gust SpeedMPH,PrecipitationIn,Events,Conditions,WindDirDegrees,DateUTC
12:35 AM,60.8,55.4,82,30.01,10.0,South,16.1,-,N/A,,Mostly Cloudy,170,2013-12-21 05:35:00
12:55 AM,60.8,55.4,82,30.00,10.0,South,15.0,-,N/A,,Mostly Cloudy,170,2013-12-21 05:55:00
1:15 AM,60.8,55.4,82,29.98,10.0,SSE,15.0,-,N/A,,Mostly Cloudy,160,2013-12-21 06:15:00
1:35 AM,60.8,55.4,82,29.99,10.0,South,13.8,-,N/A,,Overcast,170,2013-12-21 06:35:00
1:55 AM,62.6,57.2,82,29.99,10.0,South,12.7,-,N/A,,Overcast,170,2013-12-21 06:55:00
2:15 AM,62.6,57.2,82,29.99,10.0,South,12.7,-,N/A,,Overcast,170,2013-12-21 07:15:00
2:35 AM,62.6,57.2,82,29.98,10.0,South,8.1,-,N/A,,Overcast,180,2013-12-21 07:35:00
2:55 AM,62.6,57.2,82,29.98,10.0,South,8.1,-,N/A,,Overcast,180,2013-12-21 07:55:00
3:15 AM,62.6,57.2,82,29.98,10.0,SSE,9.2,-,N/A,,Overcast,160,2013-12-21 08:15:00
3:35 AM,62.6,57.2,82,29.97,10.0,SSE,9.2,-,N/A,,Overcast,160,2013-12-21 08:35:00
3:55 AM,62.6,57.2,82,29.99,10.0,South,8.1,-,N/A,,Overcast,170,2013-12-21 08:55:00
4:15 AM,62.6,57.2,82,29.96,10.0,SSE,11.5,-,N/A,,Overcast,160,2013-12-21 09:15:00
4:35 AM,62.6,57.2,82,29.95,10.0,South,11.5,-,N/A,,Overcast,170,2013-12-21 09:35:00
4:55 AM,62.6,57.2,82,29.95,10.0,SSE,11.5,-,N/A,,Overcast,160,2013-12-21 09:55:00
5:15 AM,62.6,57.2,82,29.95,10.0,South,4.6,-,N/A,,Overcast,190,2013-12-21 10:15:00
5:35 AM,62.6,57.2,82,29.95,10.0,South,6.9,-,N/A,,Overcast,180,2013-12-21 10:35:00
5:55 AM,62.6,57.2,82,29.94,10.0,South,9.2,-,N/A,,Overcast,180,2013-12-21 10:55:00
6:15 AM,62.6,57.2,82,29.93,10.0,South,6.9,-,N/A,,Overcast,180,2013-12-21 11:15:00
6:35 AM,62.6,57.2,82,29.93,10.0,South,5.8,-,N/A,,Overcast,180,2013-12-21 11:35:00
6:55 AM,62.6,57.2,82,29.93,10.0,South,5.8,-,N/A,,Overcast,180,2013-12-21 11:55:00
7:15 AM,62.6,57.2,82,29.93,10.0,South,10.4,-,N/A,,Overcast,170,2013-12-21 12:15:00
7:35 AM,62.6,57.2,82,29.93,10.0,South,9.2,-,N/A,,Overcast,170,2013-12-21 12:35:00
7:55 AM,62.6,57.2,82,29.91,10.0,South,10.4,-,N/A,,Overcast,170,2013-12-21 12:55:00
8:15 AM,62.6,57.2,82,29.91,9.0,South,9.2,-,N/A,,Overcast,170,2013-12-21 13:15:00
8:35 AM,62.6,59.0,88,29.90,10.0,South,10.4,-,N/A,,Overcast,170,2013-12-21 13:35:00
8:55 AM,62.6,59.0,88,29.90,10.0,South,10.4,-,N/A,,Overcast,170,2013-12-21 13:55:00
9:15 AM,64.4,59.0,83,29.90,10.0,South,8.1,-,N/A,,Overcast,170,2013-12-21 14:15:00
9:35 AM,62.6,59.0,88,29.90,10.0,South,9.2,-,N/A,,Overcast,180,2013-12-21 14:35:00
9:55 AM,62.6,60.8,94,29.90,6.0,South,11.5,-,N/A,,Overcast,170,2013-12-21 14:55:00
10:15 AM,64.4,60.8,88,29.90,10.0,South,12.7,-,N/A,,Overcast,170,2013-12-21 15:15:00
10:35 AM,64.4,60.8,88,29.90,10.0,South,11.5,-,N/A,,Overcast,170,2013-12-21 15:35:00
10:55 AM,64.4,60.8,88,29.90,8.0,South,10.4,-,N/A,,Overcast,180,2013-12-21 15:55:00
11:15 AM,66.2,60.8,83,29.90,10.0,South,11.5,-,N/A,,Overcast,190,2013-12-21 16:15:00
11:35 AM,66.2,60.8,83,29.90,10.0,South,13.8,-,N/A,,Overcast,190,2013-12-21 16:35:00
11:55 AM,66.2,62.6,88,29.89,10.0,South,12.7,-,N/A,,Overcast,190,2013-12-21 16:55:00
12:15 PM,66.2,62.6,88,29.89,10.0,South,11.5,-,N/A,,Overcast,190,2013-12-21 17:15:00
12:35 PM,68.0,62.6,83,29.88,10.0,South,8.1,-,N/A,,Overcast,180,2013-12-21 17:35:00
12:55 PM,68.0,62.6,83,29.86,10.0,South,11.5,-,N/A,,Overcast,170,2013-12-21 17:55:00
1:15 PM,66.2,62.6,88,29.85,10.0,South,10.4,-,N/A,,Overcast,180,2013-12-21 18:15:00
1:35 PM,66.2,64.4,94,29.84,4.0,South,10.4,-,N/A,,Overcast,170,2013-12-21 18:35:00
1:55 PM,66.2,64.4,94,29.84,4.0,South,8.1,-,N/A,,Overcast,170,2013-12-21 18:55:00
2:15 PM,66.2,64.4,94,29.84,5.0,South,8.1,-,N/A,,Overcast,180,2013-12-21 19:15:00
2:35 PM,66.2,64.4,94,29.83,2.5,South,6.9,-,N/A,,Overcast,170,2013-12-21 19:35:00
2:55 PM,66.2,64.4,94,29.82,3.0,South,10.4,-,N/A,,Overcast,170,2013-12-21 19:55:00
3:15 PM,66.2,64.4,94,29.81,7.0,South,9.2,-,N/A,,Overcast,170,2013-12-21 20:15:00
3:35 PM,66.2,64.4,94,29.80,10.0,South,13.8,-,N/A,,Mostly Cloudy,180,2013-12-21 20:35:00
3:55 PM,68.0,64.4,88,29.80,10.0,South,12.7,-,N/A,,Overcast,180,2013-12-21 20:55:00
4:15 PM,66.2,64.4,94,29.80,6.0,South,13.8,-,N/A,,Overcast,180,2013-12-21 21:15:00
4:35 PM,68.0,64.4,88,29.80,10.0,South,11.5,-,N/A,,Overcast,170,2013-12-21 21:35:00
4:55 PM,69.8,64.4,83,29.80,10.0,South,11.5,-,N/A,,Overcast,180,2013-12-21 21:55:00
5:15 PM,68.0,64.4,88,29.79,10.0,South,21.9,-,N/A,,Mostly Cloudy,170,2013-12-21 22:15:00
5:35 PM,69.8,64.4,83,29.79,10.0,South,10.4,-,N/A,,Overcast,190,2013-12-21 22:35:00
5:55 PM,69.8,64.4,83,29.79,10.0,South,11.5,-,N/A,,Overcast,180,2013-12-21 22:55:00
6:15 PM,69.8,64.4,83,29.78,10.0,South,20.7,-,N/A,,Mostly Cloudy,170,2013-12-21 23:15:00
6:35 PM,69.8,64.4,83,29.78,7.0,South,16.1,-,N/A,,Overcast,170,2013-12-21 23:35:00
6:55 PM,69.8,64.4,83,29.78,10.0,South,19.6,28.8,N/A,,Mostly Cloudy,170,2013-12-21 23:55:00
7:15 PM,69.8,64.4,83,29.78,7.0,South,20.7,38.0,N/A,,Mostly Cloudy,170,2013-12-22 00:15:00
7:35 PM,68.0,64.4,88,29.77,7.0,South,17.3,-,N/A,,Mostly Cloudy,170,2013-12-22 00:35:00
7:55 PM,69.8,64.4,83,29.77,10.0,South,15.0,-,N/A,,Clear,180,2013-12-22 00:55:00
8:15 PM,69.8,64.4,83,29.77,10.0,South,18.4,28.8,N/A,,Clear,190,2013-12-22 01:15:00
8:35 PM,71.6,64.4,78,29.77,10.0,South,18.4,28.8,N/A,,Scattered Clouds,180,2013-12-22 01:35:00
8:55 PM,71.6,64.4,78,29.77,10.0,South,17.3,27.6,N/A,,Mostly Cloudy,180,2013-12-22 01:55:00
9:15 PM,71.6,64.4,78,29.79,10.0,South,19.6,36.8,N/A,,Overcast,190,2013-12-22 02:15:00
9:35 PM,71.6,64.4,78,29.79,10.0,South,21.9,-,N/A,,Overcast,190,2013-12-22 02:35:00
9:55 PM,71.6,64.4,78,29.77,10.0,South,25.3,39.1,N/A,,Mostly Cloudy,170,2013-12-22 02:55:00
10:15 PM,71.6,62.6,73,29.77,10.0,South,17.3,35.7,N/A,,Partly Cloudy,180,2013-12-22 03:15:00
10:35 PM,71.6,64.4,78,29.78,10.0,South,16.1,-,N/A,,Partly Cloudy,180,2013-12-22 03:35:00
10:55 PM,71.6,62.6,73,29.78,10.0,South,15.0,32.2,N/A,,Clear,190,2013-12-22 03:55:00
11:15 PM,71.6,62.6,73,29.77,10.0,South,19.6,-,N/A,,Scattered Clouds,180,2013-12-22 04:15:00
11:35 PM,71.6,64.4,78,29.77,10.0,South,17.3,33.4,N/A,,Mostly Cloudy,180,2013-12-22 04:35:00
11:55 PM,71.6,64.4,78,29.78,10.0,South,23.0,32.2,N/A,,Mostly Cloudy,190,2013-12-22 04:55:00